Flag for Austria Weather past 2 weeks in Mattersburg, Burgenland, Austria

Now
43 °F

Quite cool.


Feels Like: 40 °F
Forecast: 38 / 45 °F
Wind: 6 mph from West

Location: Eisenstadt

Current Time: Mar 31, 2015 at 4:35:49 AM

Latest Report: Mar 31, 2015 at 3:00 AM


Visibility: N/A

Pressure: 29.88 "Hg

Humidity: 60%

Dew point: 30 °F

Location of MattersburgLocation

Historic Weather in Mattersburg — Graph

°F

Mattersburg temperature yesterday

Maximum temperature yesterday: 56 °F (at 8:00 AM)
Minimum temperature yesterday: 42 °F (at 7:00 PM)
Average temperature yesterday: 49 °F

Past Weeks' High & Low Weather Summary

 TemperatureHumidityPressure
High64 °F (Mar 26, 4:00 PM)94% (Mar 26, 10:00 PM)30.53 "Hg (Mar 26, 10:00 PM)
Low31 °F (Mar 19, 6:00 AM)36% (Mar 18, 4:00 PM)29.50 "Hg (Mar 30, 4:00 AM)
Average46 °F66%30.04 "Hg
* Reported Mar 16 2:00 AM — Mar 31 3:00 AM, Mattersburg, Weather by CustomWeather, © 2015

Note: Actual official high and low records may vary slightly from our data, if they occured in-between our weather recording intervals... More about our weather records

Advertising

Mattersburg weather history for previous 24 hours

 ConditionsComfort  
Time TempWeatherWind HumidityBarometerVisibility
3:00 AM
Tue, Mar 31
43 °FQuite cool.6 mph60%29.88 "HgN/A
2:00 AM44 °FPassing clouds.6 mph60%29.90 "Hg5 mi
1:00 AM44 °FQuite cool.6 mph61%29.88 "HgN/A
12:00 AM45 °FCool.7 mph60%29.86 "HgN/A
11:00 PM
Mon, Mar 30
46 °FOvercast.8 mph62%29.83 "Hg5 mi
10:00 PM45 °FCool.8 mph61%29.81 "HgN/A
9:00 PM45 °FCool.8 mph67%29.78 "HgN/A
8:00 PM44 °FPassing clouds.8 mph69%29.71 "Hg5 mi
7:00 PM42 °FRain. Overcast.12 mph80%29.70 "Hg5 mi
6:00 PM50 °FCool.9 mph49%29.63 "HgN/A
5:00 PM52 °FPassing clouds.13 mph44%29.61 "Hg12 mi
4:00 PM51 °FCool.7 mph60%29.58 "HgN/A
3:00 PM53 °FCool.8 mph54%29.55 "HgN/A
2:00 PM53 °FOvercast.9 mph65%29.54 "Hg11 mi
1:00 PM51 °FCool.1 mph88%29.50 "HgN/A
12:00 PM50 °FCool.No wind86%29.50 "HgN/A
11:00 AM50 °FOvercast.1 mph84%29.50 "Hg11 mi
10:00 AM49 °FSprinkles. Cloudy.6 mph80%29.50 "HgN/A
9:00 AM50 °FCool.6 mph79%29.50 "HgN/A
8:00 AM56 °FOvercast.6 mph59%29.50 "Hg9 mi
7:00 AM49 °FOvercast.1 mph82%29.50 "Hg9 mi
6:00 AM49 °FOvercast.2 mph83%29.50 "Hg9 mi
5:00 AM49 °FOvercast.3 mph87%29.50 "Hg9 mi
4:00 AM48 °FOvercast.2 mph90%29.50 "Hg9 mi
Weather by CustomWeather, © 2015

See weather overviewHow to use our weather pages